Time,TemperatureF,DewpointF,PressureIn,WindDirection,WindDirectionDegrees,WindSpeedMPH,WindSpeedGustMPH,Humidity,HourlyPrecipIn,Conditions,Clouds,dailyrainin,SoftwareType,DateUTC
2013-02-06 00:02:00,64.0,62.0,30.04,SSE,167,4.0,4.0,95,-99.99,,,-99.99,,2013-02-06 05:02:00,
2013-02-06 00:12:00,63.0,62.0,30.04,SSW,200,1.0,3.0,95,-99.99,,,-99.99,,2013-02-06 05:12:00,
2013-02-06 00:22:00,63.0,62.0,30.04,SSW,200,1.0,3.0,95,-99.99,,,-99.99,,2013-02-06 05:22:00,
2013-02-06 00:32:00,63.0,61.0,30.04,NW,312,2.0,2.0,95,-99.99,,,-99.99,,2013-02-06 05:32:00,
2013-02-06 00:42:00,62.0,61.0,30.04,NW,318,2.0,3.0,96,-99.99,,,-99.99,,2013-02-06 05:42:00,
2013-02-06 00:53:00,62.0,61.0,30.03,WSW,249,2.0,2.0,96,-99.99,,,-99.99,,2013-02-06 05:53:00,
2013-02-06 01:01:00,62.0,61.0,30.03,WSW,249,2.0,2.0,96,-99.99,,,-99.99,,2013-02-06 06:01:00,
2013-02-06 01:11:00,62.0,61.0,30.03,SW,223,9.0,36.0,97,-99.99,,,-99.99,,2013-02-06 06:11:00,
2013-02-06 01:22:00,62.0,61.0,30.03,SW,223,9.0,36.0,97,-99.99,,,-99.99,,2013-02-06 06:22:00,
2013-02-06 01:32:00,62.0,61.0,30.03,SW,229,26.0,44.0,97,-99.99,,,-99.99,,2013-02-06 06:32:00,
2013-02-06 01:42:00,62.0,61.0,30.03,West,279,3.0,31.0,97,-99.99,,,-99.99,,2013-02-06 06:42:00,
2013-02-06 01:52:00,62.0,61.0,30.03,WNW,293,1.0,3.0,97,-99.99,,,-99.99,,2013-02-06 06:52:00,
2013-02-06 02:02:00,62.0,61.0,30.03,WNW,293,1.0,3.0,97,-99.99,,,-99.99,,2013-02-06 07:02:00,
2013-02-06 02:11:00,62.0,61.0,30.03,NW,308,1.0,1.0,97,-99.99,,,-99.99,,2013-02-06 07:11:00,
2013-02-06 02:22:00,62.0,61.0,30.03,NW,308,1.0,1.0,97,-99.99,,,-99.99,,2013-02-06 07:22:00,
2013-02-06 02:32:00,62.0,61.0,30.03,NW,322,2.0,7.0,97,-99.99,,,-99.99,,2013-02-06 07:32:00,
2013-02-06 02:42:00,61.0,61.0,30.02,West,278,1.0,9.0,97,-99.99,,,-99.99,,2013-02-06 07:42:00,
2013-02-06 02:52:00,61.0,61.0,30.02,SSE,158,2.0,31.0,97,-99.99,,,-99.99,,2013-02-06 07:52:00,
2013-02-06 03:01:00,61.0,61.0,30.02,SSE,158,2.0,31.0,97,-99.99,,,-99.99,,2013-02-06 08:01:00,
2013-02-06 03:11:00,61.0,61.0,30.02,SE,140,5.0,32.0,98,-99.99,,,-99.99,,2013-02-06 08:11:00,
2013-02-06 03:21:00,61.0,61.0,30.02,SE,140,5.0,32.0,98,-99.99,,,-99.99,,2013-02-06 08:21:00,
2013-02-06 03:32:00,61.0,61.0,30.02,SE,140,5.0,32.0,98,-99.99,,,-99.99,,2013-02-06 08:32:00,
2013-02-06 03:42:00,62.0,61.0,30.01,South,183,1.0,7.0,98,-99.99,,,-99.99,,2013-02-06 08:42:00,
2013-02-06 03:53:00,61.0,61.0,30.01,West,265,2.0,32.0,98,-99.99,,,-99.99,,2013-02-06 08:53:00,
2013-02-06 04:02:00,61.0,61.0,30.01,West,265,2.0,32.0,98,-99.99,,,-99.99,,2013-02-06 09:02:00,
2013-02-06 04:11:00,62.0,61.0,30.01,SE,145,3.0,32.0,98,-99.99,,,-99.99,,2013-02-06 09:11:00,
2013-02-06 04:22:00,62.0,61.0,30.01,SE,145,3.0,32.0,98,-99.99,,,-99.99,,2013-02-06 09:22:00,
2013-02-06 04:32:00,61.0,60.0,30.01,SE,137,5.0,41.0,98,-99.99,,,-99.99,,2013-02-06 09:32:00,
2013-02-06 04:42:00,61.0,60.0,30.01,SE,137,5.0,41.0,98,-99.99,,,-99.99,,2013-02-06 09:42:00,
2013-02-06 04:52:00,60.0,60.0,30.02,East,99,1.0,2.0,98,-99.99,,,-99.99,,2013-02-06 09:52:00,
2013-02-06 05:01:00,60.0,60.0,30.02,East,99,1.0,2.0,98,-99.99,,,-99.99,,2013-02-06 10:01:00,
2013-02-06 05:11:00,60.0,60.0,30.02,East,91,1.0,1.0,98,-99.99,,,-99.99,,2013-02-06 10:11:00,
2013-02-06 05:22:00,60.0,60.0,30.02,East,91,1.0,1.0,98,-99.99,,,-99.99,,2013-02-06 10:22:00,
2013-02-06 05:32:00,60.0,60.0,30.02,SE,131,1.0,1.0,98,-99.99,,,-99.99,,2013-02-06 10:32:00,
2013-02-06 05:42:00,60.0,60.0,30.02,East,89,1.0,2.0,98,-99.99,,,-99.99,,2013-02-06 10:42:00,
2013-02-06 05:52:00,60.0,60.0,30.03,SW,235,1.0,2.0,98,-99.99,,,-99.99,,2013-02-06 10:52:00,
2013-02-06 06:01:00,60.0,60.0,30.03,SW,235,1.0,2.0,98,-99.99,,,-99.99,,2013-02-06 11:01:00,
2013-02-06 06:11:00,60.0,59.0,30.03,SW,221,1.0,1.0,98,-99.99,,,-99.99,,2013-02-06 11:11:00,
2013-02-06 06:22:00,60.0,59.0,30.03,SW,221,1.0,1.0,98,-99.99,,,-99.99,,2013-02-06 11:22:00,
2013-02-06 06:32:00,60.0,59.0,30.03,NE,52,1.0,2.0,98,-99.99,,,-99.99,,2013-02-06 11:32:00,
2013-02-06 06:42:00,60.0,60.0,30.04,NNE,30,2.0,2.0,98,-99.99,,,-99.99,,2013-02-06 11:42:00,
2013-02-06 06:53:00,60.0,60.0,30.05,NE,42,2.0,3.0,98,-99.99,,,-99.99,,2013-02-06 11:53:00,
2013-02-06 07:02:00,60.0,60.0,30.05,NE,42,2.0,3.0,98,-99.99,,,-99.99,,2013-02-06 12:02:00,
2013-02-06 07:12:00,60.0,60.0,30.05,NE,36,2.0,3.0,98,-99.99,,,-99.99,,2013-02-06 12:12:00,
2013-02-06 07:22:00,60.0,60.0,30.05,NE,36,2.0,3.0,98,-99.99,,,-99.99,,2013-02-06 12:22:00,
2013-02-06 07:32:00,60.0,60.0,30.06,SE,145,1.0,2.0,98,-99.99,,,-99.99,,2013-02-06 12:32:00,
2013-02-06 07:42:00,60.0,59.0,30.06,SW,236,1.0,2.0,98,-99.99,,,-99.99,,2013-02-06 12:42:00,
2013-02-06 07:52:00,60.0,60.0,30.07,NE,51,1.0,2.0,99,-99.99,,,-99.99,,2013-02-06 12:52:00,
2013-02-06 08:02:00,60.0,60.0,30.07,NE,51,1.0,2.0,99,-99.99,,,-99.99,,2013-02-06 13:02:00,
2013-02-06 08:12:00,61.0,60.0,30.07,NNE,29,2.0,3.0,99,-99.99,,,-99.99,,2013-02-06 13:12:00,
2013-02-06 08:22:00,61.0,60.0,30.07,NNE,29,2.0,3.0,99,-99.99,,,-99.99,,2013-02-06 13:22:00,
2013-02-06 08:32:00,62.0,61.0,30.07,East,94,2.0,3.0,98,-99.99,,,-99.99,,2013-02-06 13:32:00,
2013-02-06 08:42:00,62.0,62.0,30.08,South,169,2.0,3.0,98,-99.99,,,-99.99,,2013-02-06 13:42:00,
2013-02-06 08:52:00,63.0,63.0,30.08,SW,214,2.0,4.0,98,-99.99,,,-99.99,,2013-02-06 13:52:00,
2013-02-06 09:02:00,63.0,63.0,30.08,SW,214,2.0,4.0,98,-99.99,,,-99.99,,2013-02-06 14:02:00,
2013-02-06 09:11:00,64.0,63.0,30.08,WNW,292,3.0,5.0,97,-99.99,,,-99.99,,2013-02-06 14:11:00,
2013-02-06 09:22:00,64.0,63.0,30.08,WNW,292,3.0,5.0,97,-99.99,,,-99.99,,2013-02-06 14:22:00,
2013-02-06 09:32:00,66.0,64.0,30.09,West,268,3.0,5.0,94,-99.99,,,-99.99,,2013-02-06 14:32:00,
2013-02-06 09:42:00,68.0,65.0,30.09,SSE,147,2.0,4.0,88,-99.99,,,-99.99,,2013-02-06 14:42:00,
2013-02-06 09:52:00,70.0,65.0,30.09,SE,144,1.0,3.0,83,-99.99,,,-99.99,,2013-02-06 14:52:00,
2013-02-06 10:02:00,70.0,65.0,30.09,SE,144,1.0,3.0,83,-99.99,,,-99.99,,2013-02-06 15:02:00,
2013-02-06 10:11:00,73.0,66.0,30.09,East,98,1.0,3.0,77,-99.99,,,-99.99,,2013-02-06 15:11:00,
2013-02-06 10:21:00,73.0,66.0,30.09,East,98,1.0,3.0,77,-99.99,,,-99.99,,2013-02-06 15:21:00,
2013-02-06 10:32:00,75.0,66.0,30.09,SE,137,1.0,3.0,72,-99.99,,,-99.99,,2013-02-06 15:32:00,
2013-02-06 10:42:00,75.0,65.0,30.10,WSW,251,1.0,2.0,72,-99.99,,,-99.99,,2013-02-06 15:42:00,
2013-02-06 10:52:00,76.0,65.0,30.09,SSW,208,2.0,4.0,69,-99.99,,,-99.99,,2013-02-06 15:52:00,
2013-02-06 11:01:00,76.0,65.0,30.09,SSW,208,2.0,4.0,69,-99.99,,,-99.99,,2013-02-06 16:01:00,
2013-02-06 11:11:00,77.0,65.0,30.09,South,170,4.0,8.0,66,-99.99,,,-99.99,,2013-02-06 16:11:00,
2013-02-06 11:22:00,77.0,65.0,30.09,South,170,4.0,8.0,66,-99.99,,,-99.99,,2013-02-06 16:22:00,
2013-02-06 11:32:00,78.0,65.0,30.09,SE,145,4.0,7.0,64,-99.99,,,-99.99,,2013-02-06 16:32:00,
2013-02-06 11:42:00,78.0,65.0,30.09,South,173,4.0,7.0,64,-99.99,,,-99.99,,2013-02-06 16:42:00,
2013-02-06 11:52:00,79.0,64.0,30.09,ESE,114,5.0,11.0,60,-99.99,,,-99.99,,2013-02-06 16:52:00,
2013-02-06 12:02:00,79.0,64.0,30.09,ESE,114,5.0,11.0,60,-99.99,,,-99.99,,2013-02-06 17:02:00,
2013-02-06 12:12:00,78.0,64.0,30.08,ESE,119,5.0,9.0,61,-99.99,,,-99.99,,2013-02-06 17:12:00,
2013-02-06 12:22:00,78.0,64.0,30.08,ESE,119,5.0,9.0,61,-99.99,,,-99.99,,2013-02-06 17:22:00,
2013-02-06 12:32:00,78.0,64.0,30.08,SE,127,3.0,7.0,62,-99.99,,,-99.99,,2013-02-06 17:32:00,
2013-02-06 12:42:00,78.0,64.0,30.08,ESE,120,5.0,11.0,61,-99.99,,,-99.99,,2013-02-06 17:42:00,
2013-02-06 12:52:00,80.0,65.0,30.07,SE,145,8.0,14.0,59,-99.99,,,-99.99,,2013-02-06 17:52:00,
2013-02-06 13:02:00,80.0,65.0,30.07,SE,145,8.0,14.0,59,-99.99,,,-99.99,,2013-02-06 18:02:00,
2013-02-06 13:12:00,79.0,64.0,30.06,SE,142,7.0,12.0,59,-99.99,,,-99.99,,2013-02-06 18:12:00,
2013-02-06 13:23:00,79.0,64.0,30.06,SE,142,7.0,12.0,59,-99.99,,,-99.99,,2013-02-06 18:23:00,
2013-02-06 13:30:00,78.0,64.0,30.05,SE,127,5.0,12.0,62,-99.99,,,-99.99,,2013-02-06 18:30:00,
2013-02-06 13:32:00,79.0,64.0,30.06,SE,135,6.0,10.0,59,-99.99,,,-99.99,,2013-02-06 18:32:00,
2013-02-06 13:42:00,77.0,63.0,30.05,SE,132,6.0,10.0,62,-99.99,,,-99.99,,2013-02-06 18:42:00,
2013-02-06 13:52:00,78.0,64.0,30.05,SE,127,5.0,12.0,62,-99.99,,,-99.99,,2013-02-06 18:52:00,
2013-02-06 14:02:00,78.0,64.0,30.05,SE,127,5.0,12.0,62,-99.99,,,-99.99,,2013-02-06 19:02:00,
2013-02-06 14:11:00,78.0,64.0,30.05,SE,127,5.0,12.0,62,-99.99,,,-99.99,,2013-02-06 19:11:00,
2013-02-06 14:22:00,78.0,64.0,30.05,SE,127,5.0,12.0,62,-99.99,,,-99.99,,2013-02-06 19:22:00,
2013-02-06 15:32:00,76.0,64.0,30.04,SE,130,8.0,16.0,67,-99.99,,,-99.99,,2013-02-06 20:32:00,
2013-02-06 15:42:00,76.0,64.0,30.03,SE,128,8.0,12.0,67,-99.99,,,-99.99,,2013-02-06 20:42:00,
2013-02-06 15:52:00,76.0,64.0,30.03,ESE,123,9.0,13.0,66,-99.99,,,-99.99,,2013-02-06 20:52:00,
2013-02-06 16:02:00,76.0,64.0,30.03,ESE,123,9.0,13.0,66,-99.99,,,-99.99,,2013-02-06 21:02:00,
2013-02-06 16:11:00,75.0,64.0,30.03,ESE,113,10.0,16.0,68,-99.99,,,-99.99,,2013-02-06 21:11:00,
2013-02-06 16:21:00,75.0,64.0,30.03,ESE,113,10.0,16.0,68,-99.99,,,-99.99,,2013-02-06 21:21:00,
2013-02-06 16:32:00,74.0,65.0,30.03,ESE,107,11.0,15.0,71,-99.99,,,-99.99,,2013-02-06 21:32:00,
2013-02-06 16:42:00,74.0,65.0,30.03,ESE,107,11.0,15.0,71,-99.99,,,-99.99,,2013-02-06 21:42:00,
2013-02-06 16:52:00,74.0,64.0,30.03,ESE,114,9.0,15.0,70,-99.99,,,-99.99,,2013-02-06 21:52:00,
2013-02-06 17:01:00,74.0,64.0,30.03,ESE,114,9.0,15.0,70,-99.99,,,-99.99,,2013-02-06 22:01:00,
2013-02-06 17:11:00,74.0,64.0,30.03,ESE,116,8.0,15.0,71,-99.99,,,-99.99,,2013-02-06 22:11:00,
2013-02-06 17:22:00,74.0,64.0,30.03,ESE,116,8.0,15.0,71,-99.99,,,-99.99,,2013-02-06 22:22:00,
2013-02-06 17:32:00,74.0,65.0,30.04,ESE,111,8.0,13.0,71,-99.99,,,-99.99,,2013-02-06 22:32:00,
2013-02-06 17:42:00,74.0,64.0,30.04,ESE,121,8.0,12.0,72,-99.99,,,-99.99,,2013-02-06 22:42:00,
2013-02-06 17:52:00,74.0,64.0,30.04,ESE,116,7.0,12.0,72,-99.99,,,-99.99,,2013-02-06 22:52:00,
2013-02-06 18:01:00,74.0,64.0,30.04,ESE,116,7.0,12.0,72,-99.99,,,-99.99,,2013-02-06 23:01:00,
2013-02-06 18:11:00,73.0,63.0,30.04,ESE,113,7.0,12.0,69,-99.99,,,-99.99,,2013-02-06 23:11:00,
2013-02-06 18:21:00,73.0,63.0,30.04,ESE,113,7.0,12.0,69,-99.99,,,-99.99,,2013-02-06 23:21:00,
2013-02-06 18:32:00,73.0,63.0,30.04,SE,137,6.0,10.0,70,-99.99,,,-99.99,,2013-02-06 23:32:00,
2013-02-06 18:42:00,72.0,63.0,30.05,SE,134,5.0,7.0,73,-99.99,,,-99.99,,2013-02-06 23:42:00,
2013-02-06 18:52:00,72.0,63.0,30.05,ESE,114,4.0,7.0,73,-99.99,,,-99.99,,2013-02-06 23:52:00,
2013-02-06 19:02:00,72.0,63.0,30.05,ESE,114,4.0,7.0,73,-99.99,,,-99.99,,2013-02-07 00:02:00,
2013-02-06 19:11:00,72.0,62.0,30.05,East,95,6.0,9.0,69,-99.99,,,-99.99,,2013-02-07 00:11:00,
2013-02-06 19:22:00,72.0,62.0,30.05,East,95,6.0,9.0,69,-99.99,,,-99.99,,2013-02-07 00:22:00,
2013-02-06 19:32:00,72.0,61.0,30.05,East,98,6.0,10.0,67,-99.99,,,-99.99,,2013-02-07 00:32:00,
2013-02-06 19:42:00,72.0,61.0,30.05,East,98,6.0,10.0,67,-99.99,,,-99.99,,2013-02-07 00:42:00,
2013-02-06 19:52:00,72.0,60.0,30.05,ESE,109,6.0,10.0,66,-99.99,,,-99.99,,2013-02-07 00:52:00,
2013-02-06 20:01:00,72.0,60.0,30.05,ESE,109,6.0,10.0,66,-99.99,,,-99.99,,2013-02-07 01:01:00,
2013-02-06 20:11:00,72.0,60.0,30.06,ESE,110,5.0,8.0,66,-99.99,,,-99.99,,2013-02-07 01:11:00,
2013-02-06 20:21:00,72.0,60.0,30.06,ESE,110,5.0,8.0,66,-99.99,,,-99.99,,2013-02-07 01:21:00,
2013-02-06 20:32:00,71.0,60.0,30.06,ESE,106,5.0,8.0,67,-99.99,,,-99.99,,2013-02-07 01:32:00,
2013-02-06 20:42:00,71.0,60.0,30.06,East,96,6.0,8.0,68,-99.99,,,-99.99,,2013-02-07 01:42:00,
2013-02-06 20:52:00,71.0,61.0,30.07,East,94,6.0,9.0,69,-99.99,,,-99.99,,2013-02-07 01:52:00,
2013-02-06 21:01:00,71.0,61.0,30.07,East,94,6.0,9.0,69,-99.99,,,-99.99,,2013-02-07 02:01:00,
2013-02-06 21:12:00,71.0,61.0,30.07,East,92,7.0,10.0,70,-99.99,,,-99.99,,2013-02-07 02:12:00,
2013-02-06 21:21:00,71.0,61.0,30.07,East,92,7.0,10.0,70,-99.99,,,-99.99,,2013-02-07 02:21:00,
2013-02-06 21:32:00,70.0,61.0,30.06,East,94,6.0,10.0,72,-99.99,,,-99.99,,2013-02-07 02:32:00,
2013-02-06 21:42:00,70.0,61.0,30.06,East,94,6.0,10.0,72,-99.99,,,-99.99,,2013-02-07 02:42:00,
2013-02-06 21:52:00,70.0,61.0,30.06,East,94,6.0,10.0,72,-99.99,,,-99.99,,2013-02-07 02:52:00,
2013-02-06 22:02:00,70.0,62.0,30.07,East,99,7.0,10.0,75,-99.99,,,-99.99,,2013-02-07 03:02:00,
2013-02-06 22:11:00,70.0,62.0,30.07,East,100,7.0,11.0,76,-99.99,,,-99.99,,2013-02-07 03:11:00,
2013-02-06 22:21:00,70.0,62.0,30.07,East,100,7.0,11.0,76,-99.99,,,-99.99,,2013-02-07 03:21:00,
2013-02-06 22:32:00,70.0,63.0,30.07,East,98,6.0,9.0,77,-99.99,,,-99.99,,2013-02-07 03:32:00,
2013-02-06 22:42:00,69.0,63.0,30.07,East,99,5.0,7.0,80,-99.99,,,-99.99,,2013-02-07 03:42:00,
2013-02-06 22:52:00,69.0,63.0,30.07,East,96,4.0,8.0,82,-99.99,,,-99.99,,2013-02-07 03:52:00,
2013-02-06 23:01:00,69.0,63.0,30.07,East,96,4.0,8.0,82,-99.99,,,-99.99,,2013-02-07 04:01:00,
2013-02-06 23:11:00,68.0,63.0,30.07,East,90,4.0,5.0,83,-99.99,,,-99.99,,2013-02-07 04:11:00,
2013-02-06 23:22:00,68.0,63.0,30.07,East,90,4.0,5.0,83,-99.99,,,-99.99,,2013-02-07 04:22:00,
2013-02-06 23:32:00,68.0,63.0,30.07,East,90,4.0,5.0,86,-99.99,,,-99.99,,2013-02-07 04:32:00,
2013-02-06 23:42:00,67.0,64.0,30.07,East,99,5.0,6.0,87,-99.99,,,-99.99,,2013-02-07 04:42:00,
2013-02-06 23:53:00,68.0,63.0,30.07,ESE,104,5.0,6.0,85,-99.99,,,-99.99,,2013-02-07 04:53:00,